• In Deutschland
  • Länderverzeichnis
  • Für 7 Tage
  • Wassertemperatur
  • Satellitenkarten
  • Wetterkarte
  • Widgets
  • user-avatar
    Anmelden

    Stündliche Wetter Mosbach

    Heute, 15 Dezember, Freitag

    Zeit Temperatur Niederschläge Wind Luftdruck Luftfeuchtigkeit
    00:00 +3°C° 0,2 mm 4 m/S 730 mmHg 86%
    01:00 +3°C° 0 mm 4 m/S 729 mmHg 86%
    02:00 +3°C° 0,6 mm 4 m/S 729 mmHg 85%
    03:00 +2°C° 0,6 mm 5 m/S 730 mmHg 84%
    04:00 +2°C° 0,6 mm 6 m/S 730 mmHg 83%
    05:00 +2°C° 0,1 mm 5 m/S 731 mmHg 84%
    06:00 +1°C° 0,1 mm 5 m/S 731 mmHg 84%
    07:00 +2°C° 0 mm 3 m/S 732 mmHg 84%
    08:00 +2°C° 0,2 mm 3 m/S 732 mmHg 83%
    09:00 +3°C° 0,2 mm 3 m/S 732 mmHg 83%
    10:00 +3°C° 0,2 mm 4 m/S 733 mmHg 82%
    11:00 +3°C° 0,6 mm 4 m/S 733 mmHg 81%
    12:00 +3°C° 0,6 mm 5 m/S 733 mmHg 79%
    13:00 +4°C° 0 mm 4 m/S 733 mmHg 76%
    14:00 +4°C° 0,2 mm 4 m/S 733 mmHg 77%
    15:00 +3°C° 0,2 mm 4 m/S 734 mmHg 79%
    16:00 +3°C° 0,2 mm 4 m/S 734 mmHg 80%
    17:00 +3°C° 0 mm 3 m/S 734 mmHg 83%
    18:00 +2°C° 0 mm 3 m/S 735 mmHg 86%
    19:00 +2°C° 0 mm 2 m/S 735 mmHg 89%
    20:00 +2°C° 0,1 mm 2 m/S 735 mmHg 89%
    21:00 +3°C° 0,1 mm 1 m/S 735 mmHg 90%
    22:00 +3°C° 0,1 mm 1 m/S 736 mmHg 90%
    23:00 +3°C° 0,7 mm 1 m/S 736 mmHg 90%

    Morgen, 16 Dezember, Samstag

    Zeit Temperatur Niederschläge Wind Luftdruck Luftfeuchtigkeit
    00:00 +3°C° 0,7 mm 1 m/S 736 mmHg 91%
    01:00 +3°C° 0,7 mm 1 m/S 736 mmHg 91%
    02:00 +3°C° 0,4 mm 1 m/S 737 mmHg 91%
    03:00 +3°C° 0,4 mm 1 m/S 737 mmHg 92%
    04:00 +3°C° 0,4 mm 1 m/S 737 mmHg 93%
    05:00 +3°C° 0,1 mm 1 m/S 738 mmHg 93%
    06:00 +1°C° 0,1 mm 2 m/S 738 mmHg 94%
    07:00 +1°C° 0,1 mm 2 m/S 739 mmHg 95%
    08:00 +1°C° 0 mm 2 m/S 740 mmHg 93%
    09:00 +1°C° 0 mm 2 m/S 740 mmHg 92%
    10:00 +1°C° 0 mm 2 m/S 741 mmHg 91%
    11:00 +2°C° 0 mm 2 m/S 742 mmHg 90%
    12:00 +2°C° 0 mm 2 m/S 742 mmHg 88%
    13:00 +2°C° 0 mm 3 m/S 743 mmHg 87%
    14:00 +2°C° 0 mm 3 m/S 743 mmHg 87%
    15:00 +2°C° 0 mm 3 m/S 744 mmHg 87%
    16:00 +2°C° 0 mm 3 m/S 744 mmHg 87%
    17:00 +2°C° 0,1 mm 3 m/S 745 mmHg 88%
    18:00 +1°C° 0,1 mm 3 m/S 746 mmHg 89%
    19:00 +1°C° 0,1 mm 3 m/S 746 mmHg 90%
    20:00 +1°C° 0,1 mm 3 m/S 747 mmHg 90%
    21:00 +1°C° 0,1 mm 3 m/S 747 mmHg 90%
    22:00 +1°C° 0,1 mm 3 m/S 747 mmHg 91%
    23:00 +1°C° 0 mm 3 m/S 748 mmHg 91%

    übermorgen, 17 Dezember, Sonntag

    Zeit Temperatur Niederschläge Wind Luftdruck Luftfeuchtigkeit
    00:00 0°C° 0 mm 3 m/S 748 mmHg 92%
    01:00 0°C° 0 mm 3 m/S 748 mmHg 92%
    02:00 0°C° 0 mm 3 m/S 749 mmHg 92%
    03:00 0°C° 0 mm 3 m/S 749 mmHg 92%
    04:00 0°C° 0 mm 3 m/S 749 mmHg 92%
    05:00 0°C° 0,1 mm 3 m/S 750 mmHg 92%
    06:00 0°C° 0,1 mm 3 m/S 750 mmHg 92%
    07:00 0°C° 0,1 mm 3 m/S 751 mmHg 92%
    08:00 0°C° 0,1 mm 3 m/S 751 mmHg 91%
    09:00 -1°C° 0,1 mm 4 m/S 752 mmHg 91%
    10:00 -1°C° 0,1 mm 4 m/S 753 mmHg 90%
    11:00 0°C° 0 mm 4 m/S 753 mmHg 89%
    12:00 0°C° 0 mm 4 m/S 753 mmHg 88%
    13:00 0°C° 0 mm 4 m/S 753 mmHg 87%
    14:00 +1°C° 0 mm 3 m/S 754 mmHg 87%
    15:00 +1°C° 0 mm 3 m/S 754 mmHg 87%
    16:00 +1°C° 0 mm 3 m/S 754 mmHg 88%
    17:00 +1°C° 0 mm 3 m/S 755 mmHg 88%
    18:00 +1°C° 0 mm 3 m/S 755 mmHg 88%
    19:00 0°C° 0 mm 3 m/S 756 mmHg 89%
    20:00 0°C° 0 mm 3 m/S 756 mmHg 89%
    21:00 0°C° 0 mm 3 m/S 756 mmHg 90%
    22:00 0°C° 0 mm 3 m/S 757 mmHg 91%
    23:00 0°C° 0 mm 3 m/S 757 mmHg 90%

    18 Dezember, Montag

    Zeit Temperatur Niederschläge Wind Luftdruck Luftfeuchtigkeit
    00:00 -1°C° 0 mm 4 m/S 756 mmHg 90%
    01:00 -1°C° 0 mm 4 m/S 756 mmHg 90%
    02:00 -1°C° 0,1 mm 5 m/S 756 mmHg 88%
    03:00 -1°C° 0,1 mm 5 m/S 755 mmHg 86%
    04:00 -2°C° 0,1 mm 6 m/S 754 mmHg 84%
    05:00 -2°C° 1,3 mm 6 m/S 753 mmHg 87%
    06:00 -2°C° 1,3 mm 6 m/S 753 mmHg 89%
    07:00 -2°C° 1,3 mm 6 m/S 752 mmHg 92%
    08:00 -1°C° 0,9 mm 6 m/S 752 mmHg 93%
    09:00 -1°C° 0,9 mm 6 m/S 752 mmHg 94%
    10:00 +1°C° 0,9 mm 6 m/S 751 mmHg 94%
    11:00 +1°C° 0,2 mm 5 m/S 752 mmHg 95%
    12:00 +1°C° 0,2 mm 4 m/S 752 mmHg 95%
    13:00 +3°C° 0,2 mm 4 m/S 752 mmHg 96%
    14:00 +3°C° 0,1 mm 3 m/S 752 mmHg 96%
    15:00 +2°C° 0,1 mm 3 m/S 753 mmHg 96%
    16:00 +2°C° 0,1 mm 3 m/S 753 mmHg 96%
    17:00 +2°C° 0,1 mm 3 m/S 754 mmHg 96%
    18:00 +3°C° 0,1 mm 2 m/S 755 mmHg 95%
    19:00 +2°C° 0,1 mm 2 m/S 756 mmHg 95%
    20:00 +2°C° 0 mm 2 m/S 756 mmHg 95%
    21:00 +2°C° 0 mm 1 m/S 757 mmHg 95%
    22:00 +2°C° 0 mm 1 m/S 758 mmHg 95%
    23:00 +2°C° 0 mm 1 m/S 758 mmHg 95%

    19 Dezember, Dienstag

    Zeit Temperatur Niederschläge Wind Luftdruck Luftfeuchtigkeit
    00:00 +1°C° 0 mm 1 m/S 758 mmHg 95%
    01:00 +1°C° 0 mm 1 m/S 759 mmHg 94%
    02:00 +1°C° 0 mm 1 m/S 759 mmHg 94%
    03:00 +1°C° 0 mm 1 m/S 759 mmHg 94%
    04:00 +1°C° 0 mm 1 m/S 760 mmHg 94%
    05:00 +1°C° 0 mm 1 m/S 760 mmHg 94%
    06:00 +1°C° 0 mm 1 m/S 761 mmHg 94%
    07:00 +1°C° 0 mm 1 m/S 761 mmHg 94%
    08:00 +1°C° 0 mm 1 m/S 761 mmHg 93%
    09:00 +1°C° 0 mm 1 m/S 762 mmHg 93%
    10:00 +2°C° 0 mm 1 m/S 762 mmHg 92%
    11:00 +2°C° 0 mm 1 m/S 762 mmHg 92%
    12:00 +3°C° 0 mm 1 m/S 762 mmHg 92%
    13:00 +4°C° 0 mm 1 m/S 762 mmHg 91%
    14:00 +3°C° 0 mm 1 m/S 762 mmHg 92%
    15:00 +3°C° 0 mm 1 m/S 763 mmHg 93%
    16:00 +3°C° 0 mm 1 m/S 763 mmHg 94%
    17:00 +1°C° 0 mm 0 m/S 763 mmHg 94%
    18:00 +1°C° 0 mm 0 m/S 763 mmHg 94%
    19:00 +1°C° 0 mm 0 m/S 764 mmHg 94%
    20:00 +1°C° 0 mm 0 m/S 764 mmHg 94%
    21:00 0°C° 0 mm 0 m/S 764 mmHg 94%
    22:00 0°C° 0 mm 0 m/S 764 mmHg 94%
    23:00 +1°C° 0 mm 1 m/S 764 mmHg 94%

    20 Dezember, Mittwoch

    Zeit Temperatur Niederschläge Wind Luftdruck Luftfeuchtigkeit
    00:00 +1°C° 0 mm 1 m/S 764 mmHg 94%
    01:00 +1°C° 0 mm 1 m/S 764 mmHg 94%
    02:00 +1°C° 0 mm 1 m/S 764 mmHg 94%
    03:00 +1°C° 0 mm 1 m/S 764 mmHg 93%
    04:00 +1°C° 0 mm 1 m/S 764 mmHg 93%
    05:00 +1°C° 0 mm 1 m/S 764 mmHg 93%
    06:00 +1°C° 0 mm 1 m/S 764 mmHg 92%
    07:00 +1°C° 0 mm 1 m/S 764 mmHg 91%
    08:00 +2°C° 0 mm 1 m/S 764 mmHg 90%
    09:00 +2°C° 0 mm 1 m/S 765 mmHg 89%
    10:00 +3°C° 0 mm 1 m/S 765 mmHg 88%
    11:00 +3°C° 0 mm 1 m/S 765 mmHg 88%
    12:00 +4°C° 0 mm 1 m/S 764 mmHg 88%
    13:00 +4°C° 0 mm 1 m/S 764 mmHg 89%
    14:00 +4°C° 0 mm 1 m/S 764 mmHg 89%
    15:00 +4°C° 0 mm 1 m/S 764 mmHg 90%
    16:00 +4°C° 0 mm 1 m/S 764 mmHg 90%
    17:00 +4°C° 0 mm 1 m/S 764 mmHg 91%
    18:00 +4°C° 0 mm 1 m/S 765 mmHg 91%
    19:00 +4°C° 0 mm 1 m/S 765 mmHg 92%
    20:00 +4°C° 0 mm 1 m/S 765 mmHg 92%
    21:00 +3°C° 0 mm 1 m/S 765 mmHg 92%
    22:00 +3°C° 0 mm 1 m/S 765 mmHg 92%
    23:00 +3°C° 0 mm 1 m/S 765 mmHg 93%
    Mehr zeigen